GLO2050 SBGL-SBCY

Flight info

Callsign GLO2050
Flight time 2h 19m
Altitude 34000
Route EDNAM UM409 MIMIP UL795 MOPIM DCT RODAD UM775 SINIP
Aircraft B738/M-SDE2E3FGHIRWXY/LB1

Departure

Time 2026-04-28 18:24
Airport Rio Galeão – Tom Jobim International Airport (SBGL)

Arrival

Time 2026-04-28 20:43
Airport Várzea Grande–Marechal Rondon International Airport (SBCY)
Time Latitude Longitude Altitude Speed Heading
2026-04-28 17:28 -22.81257 -43.25011 21 ft 0 kts 340°
2026-04-28 18:10 -22.81268 -43.25006 21 ft 2 kts 337°
2026-04-28 18:10 -22.81280 -43.25000 22 ft 2 kts 331°
2026-04-28 18:10 -22.81290 -43.24993 22 ft 2 kts 315°
2026-04-28 18:10 -22.81296 -43.24986 22 ft 1 kts 286°
2026-04-28 18:11 -22.81297 -43.24979 25 ft 1 kts 264°
2026-04-28 18:11 -22.81296 -43.24973 24 ft 1 kts 254°
2026-04-28 18:11 -22.81294 -43.24967 23 ft 1 kts 249°
2026-04-28 18:11 -22.81292 -43.24961 22 ft 1 kts 246°
2026-04-28 18:12 -22.81290 -43.24957 22 ft 0 kts 245°
2026-04-28 18:14 -22.81291 -43.24957 22 ft 0 kts 245°
2026-04-28 18:15 -22.81295 -43.24968 23 ft 3 kts 245°
2026-04-28 18:15 -22.81327 -43.25146 21 ft 9 kts 268°
2026-04-28 18:16 -22.81311 -43.25210 22 ft 9 kts 302°
2026-04-28 18:16 -22.81272 -43.25269 21 ft 10 kts 308°
2026-04-28 18:16 -22.81223 -43.25322 21 ft 10 kts 320°
2026-04-28 18:16 -22.81164 -43.25362 21 ft 10 kts 335°
2026-04-28 18:17 -22.81093 -43.25382 21 ft 11 kts 352°
2026-04-28 18:17 -22.81025 -43.25385 21 ft 9 kts
2026-04-28 18:17 -22.80978 -43.25387 22 ft 6 kts 337°
2026-04-28 18:17 -22.80949 -43.25423 22 ft 6 kts 300°
2026-04-28 18:18 -22.80931 -43.25466 27 ft 6 kts 292°
2026-04-28 18:18 -22.80912 -43.25509 27 ft 7 kts 296°
2026-04-28 18:18 -22.80889 -43.25554 27 ft 3 kts 304°
2026-04-28 18:18 -22.80878 -43.25568 29 ft 5 kts 315°
2026-04-28 18:19 -22.80828 -43.25582 21 ft 6 kts 14°
2026-04-28 18:19 -22.80788 -43.25556 21 ft 7 kts 35°
2026-04-28 18:19 -22.80745 -43.25523 21 ft 8 kts 37°
2026-04-28 18:19 -22.80696 -43.25482 21 ft 10 kts 33°
2026-04-28 18:20 -22.80636 -43.25439 25 ft 11 kts 36°
2026-04-28 18:20 -22.80582 -43.25392 30 ft 8 kts 41°
2026-04-28 18:20 -22.80527 -43.25373 28 ft 9 kts 348°
2026-04-28 18:20 -22.80471 -43.25408 28 ft 10 kts 331°
2026-04-28 18:21 -22.80419 -43.25434 28 ft 7 kts 330°
2026-04-28 18:21 -22.80382 -43.25461 27 ft 6 kts 326°
2026-04-28 18:21 -22.80343 -43.25489 27 ft 8 kts 326°
2026-04-28 18:21 -22.80293 -43.25514 27 ft 6 kts 348°
2026-04-28 18:22 -22.80245 -43.25504 26 ft 8 kts 28°
2026-04-28 18:22 -22.80203 -43.25472 26 ft 7 kts 37°
2026-04-28 18:22 -22.80169 -43.25432 27 ft 7 kts 64°
2026-04-28 18:22 -22.80155 -43.25381 24 ft 8 kts 74°
2026-04-28 18:23 -22.80109 -43.25203 24 ft 55 kts 74°
2026-04-28 18:23 -22.79943 -43.24568 31 ft 118 kts 74°
2026-04-28 18:23 -22.79669 -43.23516 27 ft 169 kts 74°
2026-04-28 18:23 -22.79311 -43.22151 216 ft 197 kts 73°
2026-04-28 18:24 -22.78991 -43.20855 1384 ft 168 kts 77°
2026-04-28 18:24 -22.78808 -43.20025 1783 ft 177 kts 79°
2026-04-28 18:24 -22.78419 -43.18132 2211 ft 205 kts 77°
2026-04-28 18:24 -22.78093 -43.16602 2788 ft 214 kts 76°
2026-04-28 18:25 -22.77748 -43.14981 3124 ft 231 kts 76°
2026-04-28 18:25 -22.77381 -43.13224 3512 ft 247 kts 75°
2026-04-28 18:25 -22.76991 -43.11358 3911 ft 261 kts 75°
2026-04-28 18:26 -22.76177 -43.07475 4660 ft 267 kts 75°
2026-04-28 18:26 -22.75763 -43.05513 5014 ft 267 kts 75°
2026-04-28 18:26 -22.75345 -43.03542 5376 ft 271 kts 75°
2026-04-28 18:26 -22.74761 -43.01605 5730 ft 272 kts 56°
2026-04-28 18:27 -22.73449 -43.00190 6093 ft 266 kts 26°
2026-04-28 18:27 -22.71708 -42.99639 6469 ft 261 kts 359°
2026-04-28 18:27 -22.69933 -42.99952 6826 ft 259 kts 336°
2026-04-28 18:27 -22.68317 -43.00805 7184 ft 260 kts 340°
2026-04-28 18:28 -22.66509 -43.00973 7548 ft 263 kts 359°
2026-04-28 18:28 -22.64743 -43.01381 7897 ft 260 kts 335°
2026-04-28 18:28 -22.63101 -43.02164 8274 ft 263 kts 335°
2026-04-28 18:28 -22.61387 -43.02942 8661 ft 273 kts 336°
2026-04-28 18:29 -22.59593 -43.03709 9043 ft 279 kts 337°
2026-04-28 18:29 -22.57781 -43.04450 9412 ft 278 kts 339°
2026-04-28 18:29 -22.55959 -43.05174 9762 ft 280 kts 338°
2026-04-28 18:29 -22.54118 -43.05902 10065 ft 282 kts 338°
2026-04-28 18:30 -22.52237 -43.06644 10325 ft 297 kts 338°
2026-04-28 18:30 -22.51575 -43.06905 10407 ft 303 kts 338°
2026-04-28 18:30 -22.48139 -43.08257 10845 ft 325 kts 338°
2026-04-28 18:30 -22.45998 -43.09097 11073 ft 329 kts 338°
2026-04-28 18:31 -22.43839 -43.09944 11295 ft 329 kts 338°
2026-04-28 18:31 -22.41680 -43.10791 11545 ft 330 kts 338°
2026-04-28 18:31 -22.39516 -43.11640 11775 ft 331 kts 338°
2026-04-28 18:31 -22.37346 -43.12490 12015 ft 332 kts 338°
2026-04-28 18:32 -22.35167 -43.13345 12247 ft 333 kts 338°
2026-04-28 18:32 -22.33016 -43.14188 12489 ft 333 kts 338°
2026-04-28 18:32 -22.30832 -43.15045 12739 ft 335 kts 338°
2026-04-28 18:32 -22.28634 -43.15906 12995 ft 337 kts 338°
2026-04-28 18:33 -22.26423 -43.16773 13251 ft 339 kts 338°
2026-04-28 18:33 -22.24195 -43.17645 13488 ft 342 kts 338°
2026-04-28 18:33 -22.21897 -43.18543 13618 ft 360 kts 338°
2026-04-28 18:33 -22.19515 -43.19476 13973 ft 366 kts 338°
2026-04-28 18:34 -22.17098 -43.20420 14020 ft 369 kts 338°
2026-04-28 18:34 -22.14711 -43.21443 14063 ft 371 kts 332°
2026-04-28 18:34 -22.12458 -43.22754 14565 ft 373 kts 328°
2026-04-28 18:34 -22.10238 -43.24189 15236 ft 372 kts 327°
2026-04-28 18:35 -22.08028 -43.25643 15847 ft 373 kts 327°
2026-04-28 18:35 -22.05796 -43.27099 16387 ft 377 kts 327°
2026-04-28 18:35 -22.03535 -43.28554 16927 ft 380 kts 328°
2026-04-28 18:35 -22.01242 -43.30010 17485 ft 383 kts 328°
2026-04-28 18:36 -21.98937 -43.31461 18032 ft 385 kts 328°
2026-04-28 18:36 -21.96609 -43.32920 18509 ft 389 kts 328°
2026-04-28 18:36 -21.94263 -43.34387 18957 ft 391 kts 328°
2026-04-28 18:36 -21.91901 -43.35863 19424 ft 393 kts 328°
2026-04-28 18:37 -21.89526 -43.37348 19890 ft 395 kts 328°
2026-04-28 18:37 -21.87234 -43.38780 20306 ft 398 kts 328°
2026-04-28 18:37 -21.84829 -43.40282 20749 ft 400 kts 328°
2026-04-28 18:37 -21.82418 -43.41788 21176 ft 402 kts 328°
2026-04-28 18:38 -21.79986 -43.43306 21574 ft 405 kts 328°
2026-04-28 18:38 -21.77571 -43.44812 21994 ft 407 kts 328°
2026-04-28 18:38 -21.75118 -43.46341 22423 ft 408 kts 328°
2026-04-28 18:38 -21.72644 -43.47883 22847 ft 410 kts 328°
2026-04-28 18:39 -21.70167 -43.49426 23229 ft 412 kts 328°
2026-04-28 18:39 -21.67676 -43.50979 23590 ft 415 kts 328°
2026-04-28 18:39 -21.65169 -43.52540 23896 ft 417 kts 328°
2026-04-28 18:39 -21.62659 -43.54103 24230 ft 418 kts 328°
2026-04-28 18:40 -21.60139 -43.55671 24575 ft 419 kts 328°
2026-04-28 18:40 -21.57611 -43.57243 24811 ft 422 kts 328°
2026-04-28 18:40 -21.55056 -43.58831 25059 ft 425 kts 328°
2026-04-28 18:40 -21.52483 -43.60427 25309 ft 428 kts 328°
2026-04-28 18:41 -21.49897 -43.62031 25560 ft 431 kts 328°
2026-04-28 18:41 -21.47325 -43.63626 25806 ft 433 kts 328°
2026-04-28 18:41 -21.44710 -43.65247 26051 ft 435 kts 328°
2026-04-28 18:41 -21.42083 -43.66875 26309 ft 437 kts 328°
2026-04-28 18:42 -21.39445 -43.68510 26566 ft 438 kts 328°
2026-04-28 18:42 -21.36792 -43.70153 26825 ft 440 kts 328°
2026-04-28 18:42 -21.34140 -43.71795 27077 ft 441 kts 328°
2026-04-28 18:42 -21.31471 -43.73448 27316 ft 442 kts 328°
2026-04-28 18:43 -21.28799 -43.75100 27566 ft 443 kts 328°
2026-04-28 18:43 -21.26121 -43.76759 27810 ft 444 kts 328°
2026-04-28 18:43 -21.23495 -43.78439 28053 ft 445 kts 327°
2026-04-28 18:43 -21.20852 -43.80169 28302 ft 445 kts 327°
2026-04-28 18:44 -21.18208 -43.81914 28548 ft 445 kts 327°
2026-04-28 18:44 -21.12934 -43.85387 29019 ft 445 kts 327°
2026-04-28 18:44 -21.10302 -43.87111 29258 ft 444 kts 327°
2026-04-28 18:45 -21.07661 -43.88838 29493 ft 443 kts 327°
2026-04-28 18:45 -21.05036 -43.90550 29739 ft 442 kts 327°
2026-04-28 18:45 -21.02415 -43.92259 29982 ft 440 kts 327°
2026-04-28 18:45 -20.99798 -43.93965 30210 ft 439 kts 327°
2026-04-28 18:46 -20.97192 -43.95663 30417 ft 437 kts 327°
2026-04-28 18:46 -20.94601 -43.97350 30630 ft 436 kts 327°
2026-04-28 18:46 -20.92012 -43.99036 30857 ft 434 kts 327°
2026-04-28 18:46 -20.89434 -44.00713 31087 ft 433 kts 327°
2026-04-28 18:47 -20.86870 -44.02382 31319 ft 431 kts 327°
2026-04-28 18:47 -20.84306 -44.04050 31554 ft 430 kts 327°
2026-04-28 18:47 -20.81783 -44.05691 31787 ft 429 kts 327°
2026-04-28 18:47 -20.79232 -44.07348 32025 ft 429 kts 327°
2026-04-28 18:48 -20.76679 -44.09006 32267 ft 428 kts 327°
2026-04-28 18:48 -20.74131 -44.10649 32512 ft 428 kts 327°
2026-04-28 18:48 -20.71573 -44.12294 32758 ft 428 kts 327°
2026-04-28 18:48 -20.69027 -44.13951 33005 ft 428 kts 327°
2026-04-28 18:49 -20.66485 -44.15611 33253 ft 428 kts 327°
2026-04-28 18:49 -20.65627 -44.16171 33337 ft 428 kts 327°
2026-04-28 18:49 -20.61392 -44.18918 33759 ft 429 kts 327°
2026-04-28 18:49 -20.58831 -44.20557 34016 ft 429 kts 327°
2026-04-28 18:50 -20.53653 -44.23863 34033 ft 438 kts 327°
2026-04-28 18:50 -20.48404 -44.27219 34020 ft 439 kts 327°
2026-04-28 18:51 -20.43164 -44.30570 34025 ft 438 kts 327°
2026-04-28 18:51 -20.37954 -44.33933 34025 ft 437 kts 327°
2026-04-28 18:52 -20.32786 -44.37280 34020 ft 437 kts 327°
2026-04-28 18:52 -20.27593 -44.40637 34016 ft 436 kts 327°
2026-04-28 18:53 -20.23242 -44.43445 34022 ft 436 kts 327°
2026-04-28 18:53 -20.18083 -44.46773 34018 ft 436 kts 327°
2026-04-28 18:54 -20.12886 -44.50122 34014 ft 436 kts 327°
2026-04-28 18:54 -20.07667 -44.53460 34013 ft 437 kts 328°
2026-04-28 18:55 -20.02438 -44.56797 34012 ft 438 kts 328°
2026-04-28 18:55 -19.97246 -44.60110 34013 ft 438 kts 328°
2026-04-28 18:56 -19.92012 -44.63449 34013 ft 439 kts 328°
2026-04-28 18:56 -19.86769 -44.66792 34009 ft 439 kts 328°
2026-04-28 18:57 -19.81520 -44.70136 34003 ft 440 kts 328°
2026-04-28 18:57 -19.76260 -44.73484 34009 ft 440 kts 328°
2026-04-28 18:58 -19.71000 -44.76830 34002 ft 441 kts 328°
2026-04-28 18:58 -19.65744 -44.80172 34005 ft 441 kts 328°
2026-04-28 18:59 -19.60513 -44.83495 33995 ft 441 kts 328°
2026-04-28 18:59 -19.55395 -44.87046 33987 ft 439 kts 316°
2026-04-28 19:00 -19.51733 -44.92182 33990 ft 439 kts 296°
2026-04-28 19:00 -19.49628 -44.98261 34000 ft 439 kts 289°
2026-04-28 19:01 -19.47680 -45.04368 33992 ft 440 kts 290°
2026-04-28 19:01 -19.45680 -45.10491 33990 ft 440 kts 290°
2026-04-28 19:02 -19.43647 -45.16604 33992 ft 440 kts 290°
2026-04-28 19:02 -19.41603 -45.22718 33986 ft 440 kts 290°
2026-04-28 19:03 -19.39558 -45.28835 33989 ft 440 kts 290°
2026-04-28 19:03 -19.37508 -45.34957 33993 ft 441 kts 290°
2026-04-28 19:04 -19.35459 -45.41071 33991 ft 441 kts 290°
2026-04-28 19:04 -19.33417 -45.47158 33991 ft 441 kts 290°
2026-04-28 19:05 -19.31360 -45.53273 33999 ft 441 kts 290°
2026-04-28 19:05 -19.29295 -45.59399 33995 ft 441 kts 290°
2026-04-28 19:06 -19.27577 -45.64489 33994 ft 441 kts 290°
2026-04-28 19:06 -19.25160 -45.71646 33997 ft 441 kts 290°
2026-04-28 19:07 -19.23089 -45.77772 34002 ft 441 kts 290°
2026-04-28 19:07 -19.21022 -45.83879 34007 ft 441 kts 290°
2026-04-28 19:08 -19.18966 -45.89946 34017 ft 441 kts 290°
2026-04-28 19:08 -19.16895 -45.96051 34008 ft 441 kts 290°
2026-04-28 19:09 -19.14824 -46.02147 34021 ft 440 kts 290°
2026-04-28 19:09 -19.12751 -46.08248 34020 ft 441 kts 290°
2026-04-28 19:10 -19.10677 -46.14346 34017 ft 441 kts 290°
2026-04-28 19:10 -19.08600 -46.20446 34019 ft 441 kts 290°
2026-04-28 19:11 -19.06520 -46.26547 34020 ft 441 kts 290°
2026-04-28 19:11 -19.04437 -46.32649 34011 ft 441 kts 290°
2026-04-28 19:12 -19.02366 -46.38711 34014 ft 441 kts 290°
2026-04-28 19:12 -19.00280 -46.44808 34009 ft 441 kts 290°
2026-04-28 19:13 -18.98191 -46.50908 34009 ft 441 kts 290°
2026-04-28 19:13 -18.96101 -46.57004 34008 ft 441 kts 290°
2026-04-28 19:14 -18.94127 -46.62755 34008 ft 442 kts 290°
2026-04-28 19:14 -18.92098 -46.68889 34005 ft 442 kts 289°
2026-04-28 19:15 -18.90158 -46.75061 34008 ft 442 kts 289°
2026-04-28 19:15 -18.88545 -46.80180 34005 ft 442 kts 289°
2026-04-28 19:16 -18.86284 -46.87296 34007 ft 443 kts 289°
2026-04-28 19:16 -18.84596 -46.92583 34002 ft 443 kts 289°
2026-04-28 19:17 -18.82635 -46.98718 34004 ft 443 kts 289°
2026-04-28 19:17 -18.80662 -47.04884 34002 ft 443 kts 289°
2026-04-28 19:18 -18.78690 -47.11043 34000 ft 443 kts 289°
2026-04-28 19:18 -18.76712 -47.17212 34000 ft 443 kts 289°
2026-04-28 19:19 -18.74731 -47.23379 33991 ft 443 kts 289°
2026-04-28 19:19 -18.72750 -47.29540 33991 ft 443 kts 289°
2026-04-28 19:20 -18.70781 -47.35661 33994 ft 443 kts 289°
2026-04-28 19:20 -18.68794 -47.41830 33986 ft 443 kts 289°
2026-04-28 19:21 -18.66809 -47.47986 33989 ft 443 kts 289°
2026-04-28 19:21 -18.64825 -47.54134 33986 ft 443 kts 289°
2026-04-28 19:22 -18.63171 -47.59250 33985 ft 443 kts 289°
2026-04-28 19:22 -18.60845 -47.66442 33977 ft 443 kts 289°
2026-04-28 19:23 -18.58840 -47.72601 33978 ft 443 kts 289°
2026-04-28 19:23 -18.56833 -47.78739 33975 ft 443 kts 289°
2026-04-28 19:24 -18.54838 -47.84836 33983 ft 443 kts 289°
2026-04-28 19:24 -18.52825 -47.90985 33972 ft 443 kts 289°
2026-04-28 19:25 -18.50813 -47.97124 33973 ft 444 kts 289°
2026-04-28 19:25 -18.48796 -48.03275 33970 ft 444 kts 289°
2026-04-28 19:26 -18.46776 -48.09426 33966 ft 444 kts 289°
2026-04-28 19:26 -18.44750 -48.15577 33969 ft 444 kts 290°
2026-04-28 19:27 -18.42714 -48.21724 33957 ft 444 kts 290°
2026-04-28 19:27 -18.40677 -48.27875 33959 ft 444 kts 289°
2026-04-28 19:28 -18.38666 -48.34024 33955 ft 444 kts 289°
2026-04-28 19:28 -18.36674 -48.40139 33954 ft 444 kts 289°
2026-04-28 19:29 -18.34990 -48.45295 33951 ft 444 kts 289°
2026-04-28 19:29 -18.32654 -48.52432 33950 ft 444 kts 289°
2026-04-28 19:30 -18.30640 -48.58574 33949 ft 444 kts 289°
2026-04-28 19:30 -18.28610 -48.64711 33944 ft 444 kts 290°
2026-04-28 19:31 -18.26573 -48.70839 33950 ft 443 kts 290°
2026-04-28 19:31 -18.24534 -48.76971 33942 ft 444 kts 290°
2026-04-28 19:32 -18.22498 -48.83094 33947 ft 443 kts 290°
2026-04-28 19:32 -18.20459 -48.89219 33949 ft 443 kts 290°
2026-04-28 19:33 -18.18417 -48.95340 33944 ft 444 kts 290°
2026-04-28 19:33 -18.16383 -49.01424 33954 ft 444 kts 290°
2026-04-28 19:34 -18.14330 -49.07564 33942 ft 444 kts 290°
2026-04-28 19:34 -18.12276 -49.13701 33943 ft 444 kts 290°
2026-04-28 19:35 -18.10222 -49.19829 33947 ft 444 kts 290°
2026-04-28 19:35 -18.08184 -49.25904 33935 ft 443 kts 290°
2026-04-28 19:36 -18.06133 -49.32017 33941 ft 443 kts 290°
2026-04-28 19:36 -18.04082 -49.38123 33937 ft 442 kts 290°
2026-04-28 19:37 -18.02378 -49.43193 33943 ft 442 kts 290°
2026-04-28 19:37 -17.99983 -49.50309 33938 ft 442 kts 290°
2026-04-28 19:38 -17.97929 -49.56402 33936 ft 442 kts 290°
2026-04-28 19:38 -17.95889 -49.62448 33932 ft 442 kts 290°
2026-04-28 19:39 -17.93835 -49.68529 33939 ft 442 kts 290°
2026-04-28 19:39 -17.91779 -49.74610 33934 ft 442 kts 290°
2026-04-28 19:40 -17.89719 -49.80695 33928 ft 442 kts 290°
2026-04-28 19:40 -17.87660 -49.86772 33935 ft 441 kts 290°
2026-04-28 19:41 -17.85603 -49.92844 33930 ft 441 kts 290°
2026-04-28 19:41 -17.83555 -49.98925 33924 ft 441 kts 290°
2026-04-28 19:42 -17.81854 -50.03973 33922 ft 441 kts 290°
2026-04-28 19:42 -17.79803 -50.10047 33924 ft 441 kts 290°
2026-04-28 19:43 -17.77949 -50.16181 33923 ft 442 kts 282°
2026-04-28 19:43 -17.76770 -50.22510 33928 ft 442 kts 281°
2026-04-28 19:44 -17.75638 -50.28860 33924 ft 443 kts 281°
2026-04-28 19:44 -17.74479 -50.35210 33930 ft 443 kts 281°
2026-04-28 19:45 -17.73297 -50.41569 33933 ft 444 kts 282°
2026-04-28 19:45 -17.72103 -50.47942 33932 ft 445 kts 282°
2026-04-28 19:46 -17.70915 -50.54264 33939 ft 445 kts 282°
2026-04-28 19:46 -17.69716 -50.60640 33940 ft 445 kts 282°
2026-04-28 19:47 -17.68514 -50.67017 33937 ft 445 kts 282°
2026-04-28 19:47 -17.67309 -50.73405 33947 ft 446 kts 282°
2026-04-28 19:48 -17.66102 -50.79789 33948 ft 445 kts 282°
2026-04-28 19:48 -17.64896 -50.86153 33947 ft 445 kts 282°
2026-04-28 19:49 -17.63691 -50.92507 33955 ft 444 kts 282°
2026-04-28 19:49 -17.62485 -50.98848 33955 ft 444 kts 282°
2026-04-28 19:50 -17.60680 -51.08321 33953 ft 443 kts 282°
2026-04-28 19:51 -17.59471 -51.14656 33955 ft 442 kts 282°
2026-04-28 19:51 -17.58263 -51.20970 33956 ft 442 kts 282°
2026-04-28 19:52 -17.57053 -51.27281 33958 ft 441 kts 282°
2026-04-28 19:52 -17.55842 -51.33587 33960 ft 441 kts 282°
2026-04-28 19:53 -17.54629 -51.39895 33958 ft 441 kts 282°
2026-04-28 19:53 -17.53414 -51.46200 33965 ft 441 kts 282°
2026-04-28 19:54 -17.52204 -51.52467 33958 ft 442 kts 282°
2026-04-28 19:54 -17.50984 -51.58780 33956 ft 442 kts 282°
2026-04-28 19:55 -17.49761 -51.65093 33959 ft 442 kts 282°
2026-04-28 19:55 -17.48536 -51.71405 33959 ft 442 kts 282°
2026-04-28 19:56 -17.47309 -51.77720 33959 ft 442 kts 282°
2026-04-28 19:56 -17.46079 -51.84035 33959 ft 442 kts 283°
2026-04-28 19:57 -17.44855 -51.90309 33953 ft 442 kts 283°
2026-04-28 19:57 -17.43621 -51.96625 33954 ft 442 kts 283°
2026-04-28 19:58 -17.42383 -52.02946 33951 ft 443 kts 283°
2026-04-28 19:58 -17.41150 -52.09234 33954 ft 443 kts 283°
2026-04-28 19:59 -17.39907 -52.15562 33954 ft 444 kts 283°
2026-04-28 19:59 -17.38663 -52.21886 33956 ft 444 kts 283°
2026-04-28 20:00 -17.37414 -52.28222 33953 ft 444 kts 283°
2026-04-28 20:00 -17.36163 -52.34556 33951 ft 445 kts 283°
2026-04-28 20:01 -17.34908 -52.40902 33951 ft 444 kts 283°
2026-04-28 20:01 -17.33654 -52.47230 33954 ft 444 kts 283°
2026-04-28 20:02 -17.32399 -52.53552 33950 ft 443 kts 283°
2026-04-28 20:02 -17.31143 -52.59871 33950 ft 442 kts 283°
2026-04-28 20:03 -17.29897 -52.66133 33952 ft 441 kts 283°
2026-04-28 20:03 -17.28648 -52.72395 33947 ft 439 kts 283°
2026-04-28 20:04 -17.27397 -52.78652 33948 ft 438 kts 283°
2026-04-28 20:04 -17.26149 -52.84883 33939 ft 437 kts 283°
2026-04-28 20:05 -17.24902 -52.91102 33953 ft 436 kts 283°
2026-04-28 20:05 -17.23657 -52.97296 33952 ft 435 kts 283°
2026-04-28 20:06 -17.22408 -53.03509 33948 ft 435 kts 283°
2026-04-28 20:06 -17.21161 -53.09697 33948 ft 435 kts 283°
2026-04-28 20:07 -17.19911 -53.15889 33951 ft 435 kts 283°
2026-04-28 20:07 -17.18667 -53.22041 33948 ft 435 kts 283°
2026-04-28 20:08 -17.17407 -53.28267 33952 ft 435 kts 283°
2026-04-28 20:08 -17.16151 -53.34458 33949 ft 435 kts 283°
2026-04-28 20:09 -17.14899 -53.40617 33946 ft 435 kts 283°
2026-04-28 20:09 -17.13639 -53.46812 33946 ft 435 kts 283°
2026-04-28 20:10 -17.12375 -53.53014 33953 ft 436 kts 283°
2026-04-28 20:10 -17.11110 -53.59212 33950 ft 436 kts 283°
2026-04-28 20:11 -17.09787 -53.65397 33950 ft 436 kts 287°
2026-04-28 20:11 -17.07331 -53.71162 33960 ft 435 kts 298°
2026-04-28 20:12 -17.04385 -53.76690 33950 ft 435 kts 299°
2026-04-28 20:12 -17.01442 -53.82228 33948 ft 436 kts 298°
2026-04-28 20:13 -16.98540 -53.87745 33943 ft 436 kts 298°
2026-04-28 20:13 -16.95633 -53.93293 33943 ft 436 kts 298°
2026-04-28 20:14 -16.92718 -53.98857 33943 ft 436 kts 298°
2026-04-28 20:14 -16.89807 -54.04407 33941 ft 436 kts 298°
2026-04-28 20:15 -16.87384 -54.09023 33935 ft 436 kts 298°
2026-04-28 20:15 -16.84126 -54.15225 33933 ft 436 kts 298°
2026-04-28 20:16 -16.81204 -54.20782 33928 ft 436 kts 298°
2026-04-28 20:16 -16.78296 -54.26306 33927 ft 437 kts 298°
2026-04-28 20:17 -16.75368 -54.31866 33932 ft 437 kts 298°
2026-04-28 20:17 -16.72440 -54.37420 33924 ft 437 kts 298°
2026-04-28 20:18 -16.69513 -54.42970 33918 ft 437 kts 299°
2026-04-28 20:18 -16.66582 -54.48521 33917 ft 437 kts 299°
2026-04-28 20:19 -16.64140 -54.53143 33923 ft 436 kts 299°
2026-04-28 20:19 -16.63669 -54.54036 33920 ft 436 kts 299°
2026-04-28 20:20 -16.57841 -54.65062 32424 ft 434 kts 299°
2026-04-28 20:20 -16.56415 -54.67819 31937 ft 431 kts 298°
2026-04-28 20:20 -16.55009 -54.70570 31472 ft 427 kts 299°
2026-04-28 20:20 -16.53636 -54.73266 31003 ft 425 kts 299°
2026-04-28 20:21 -16.52253 -54.75980 30509 ft 423 kts 299°
2026-04-28 20:21 -16.50878 -54.78676 30037 ft 420 kts 299°
2026-04-28 20:21 -16.49507 -54.81357 29495 ft 418 kts 299°
2026-04-28 20:21 -16.48139 -54.84027 28988 ft 415 kts 299°
2026-04-28 20:22 -16.46781 -54.86672 28497 ft 411 kts 299°
2026-04-28 20:22 -16.45440 -54.89285 28019 ft 408 kts 299°
2026-04-28 20:22 -16.44107 -54.91880 27551 ft 405 kts 299°
2026-04-28 20:22 -16.42779 -54.94464 27085 ft 402 kts 299°
2026-04-28 20:23 -16.41466 -54.97018 26628 ft 399 kts 299°
2026-04-28 20:23 -16.40162 -54.99554 26171 ft 396 kts 299°
2026-04-28 20:23 -16.38865 -55.02077 25716 ft 394 kts 299°
2026-04-28 20:23 -16.37576 -55.04583 25261 ft 391 kts 299°
2026-04-28 20:24 -16.36307 -55.07048 24804 ft 390 kts 299°
2026-04-28 20:24 -16.35030 -55.09530 24349 ft 388 kts 299°
2026-04-28 20:24 -16.33755 -55.12006 23896 ft 387 kts 299°
2026-04-28 20:24 -16.32485 -55.14470 23433 ft 385 kts 299°
2026-04-28 20:25 -16.31223 -55.16920 22924 ft 383 kts 299°
2026-04-28 20:25 -16.29965 -55.19361 22469 ft 380 kts 299°
2026-04-28 20:25 -16.28718 -55.21780 22005 ft 377 kts 299°
2026-04-28 20:25 -16.27480 -55.24182 21558 ft 375 kts 299°
2026-04-28 20:26 -16.26252 -55.26560 21130 ft 372 kts 299°
2026-04-28 20:26 -16.25010 -55.28910 20696 ft 369 kts 302°
2026-04-28 20:26 -16.23554 -55.31103 20274 ft 367 kts 308°
2026-04-28 20:26 -16.21983 -55.33188 19846 ft 365 kts 309°
2026-04-28 20:27 -16.20393 -55.35240 19406 ft 364 kts 309°
2026-04-28 20:27 -16.18830 -55.37268 18979 ft 363 kts 309°
2026-04-28 20:27 -16.17264 -55.39328 18549 ft 363 kts 308°
2026-04-28 20:27 -16.15713 -55.41392 18096 ft 362 kts 308°
2026-04-28 20:28 -16.14171 -55.43461 17627 ft 361 kts 308°
2026-04-28 20:28 -16.12641 -55.45520 17192 ft 358 kts 308°
2026-04-28 20:28 -16.11125 -55.47563 16773 ft 356 kts 308°
2026-04-28 20:28 -16.09619 -55.49592 16357 ft 353 kts 308°
2026-04-28 20:29 -16.08121 -55.51612 15942 ft 351 kts 308°
2026-04-28 20:29 -16.06628 -55.53621 15520 ft 349 kts 308°
2026-04-28 20:29 -16.05147 -55.55614 15118 ft 347 kts 308°
2026-04-28 20:29 -16.03668 -55.57603 14669 ft 347 kts 308°
2026-04-28 20:30 -16.02197 -55.59578 14260 ft 345 kts 308°
2026-04-28 20:30 -16.00728 -55.61550 13849 ft 344 kts 308°
2026-04-28 20:30 -15.99267 -55.63513 13402 ft 342 kts 308°
2026-04-28 20:30 -15.97812 -55.65467 12974 ft 340 kts 308°
2026-04-28 20:31 -15.96371 -55.67401 12559 ft 338 kts 308°
2026-04-28 20:31 -15.94935 -55.69329 12153 ft 335 kts 308°
2026-04-28 20:31 -15.93513 -55.71237 11762 ft 333 kts 308°
2026-04-28 20:31 -15.92101 -55.73133 11366 ft 331 kts 308°
2026-04-28 20:32 -15.90707 -55.75003 10974 ft 330 kts 308°
2026-04-28 20:32 -15.89291 -55.76902 10578 ft 328 kts 308°
2026-04-28 20:32 -15.87909 -55.78754 10372 ft 320 kts 308°
2026-04-28 20:32 -15.86569 -55.80551 10210 ft 307 kts 308°
2026-04-28 20:33 -15.85309 -55.82241 10071 ft 293 kts 308°
2026-04-28 20:33 -15.84077 -55.83891 9954 ft 285 kts 309°
2026-04-28 20:33 -15.82872 -55.85505 9701 ft 282 kts 309°
2026-04-28 20:33 -15.81670 -55.87115 9409 ft 280 kts 309°
2026-04-28 20:34 -15.80478 -55.88711 9104 ft 279 kts 309°
2026-04-28 20:34 -15.79291 -55.90300 8814 ft 278 kts 309°
2026-04-28 20:34 -15.78108 -55.91882 8524 ft 277 kts 309°
2026-04-28 20:34 -15.76919 -55.93459 8233 ft 276 kts 312°
2026-04-28 20:35 -15.75427 -55.94666 7937 ft 272 kts 333°
2026-04-28 20:35 -15.73748 -55.95554 7664 ft 271 kts 334°
2026-04-28 20:35 -15.72068 -55.96431 7372 ft 270 kts 334°
2026-04-28 20:35 -15.70387 -55.97313 7081 ft 270 kts 334°
2026-04-28 20:36 -15.68715 -55.98194 6794 ft 270 kts 334°
2026-04-28 20:36 -15.67046 -55.99079 6496 ft 269 kts 334°
2026-04-28 20:36 -15.65382 -55.99963 6216 ft 268 kts 334°
2026-04-28 20:36 -15.63718 -56.00849 5897 ft 269 kts 334°
2026-04-28 20:37 -15.62053 -56.01734 5605 ft 268 kts 334°
2026-04-28 20:37 -15.60394 -56.02617 5330 ft 267 kts 334°
2026-04-28 20:37 -15.58745 -56.03495 5062 ft 265 kts 334°
2026-04-28 20:37 -15.57109 -56.04366 4803 ft 264 kts 333°
2026-04-28 20:38 -15.55481 -56.05232 4521 ft 263 kts 334°
2026-04-28 20:38 -15.53861 -56.06093 4362 ft 258 kts 333°
2026-04-28 20:38 -15.52295 -56.06928 4210 ft 247 kts 332°
2026-04-28 20:38 -15.50924 -56.07910 4081 ft 234 kts 314°
2026-04-28 20:39 -15.50039 -56.09276 4009 ft 225 kts 294°
2026-04-28 20:39 -15.49643 -56.10801 3942 ft 214 kts 278°
2026-04-28 20:39 -15.49668 -56.12315 3828 ft 209 kts 261°
2026-04-28 20:39 -15.50094 -56.13758 3608 ft 210 kts 246°
2026-04-28 20:40 -15.50849 -56.15015 3409 ft 208 kts 229°
2026-04-28 20:40 -15.51943 -56.15988 3206 ft 206 kts 211°
2026-04-28 20:40 -15.53242 -56.16575 2989 ft 203 kts 195°
2026-04-28 20:40 -15.54637 -56.16761 2735 ft 202 kts 179°
2026-04-28 20:41 -15.56019 -56.16548 2489 ft 199 kts 163°
2026-04-28 20:41 -15.57268 -56.15979 2243 ft 192 kts 150°
2026-04-28 20:41 -15.58426 -56.15338 1975 ft 185 kts 152°
2026-04-28 20:41 -15.59542 -56.14739 1732 ft 175 kts 153°
2026-04-28 20:42 -15.60584 -56.14183 1544 ft 160 kts 153°
2026-04-28 20:42 -15.61529 -56.13678 1343 ft 147 kts 153°
2026-04-28 20:42 -15.62438 -56.13197 1095 ft 144 kts 153°
2026-04-28 20:42 -15.63322 -56.12729 877 ft 140 kts 153°
2026-04-28 20:43 -15.64175 -56.12260 695 ft 139 kts 154°
2026-04-28 20:43 -15.65015 -56.11812 601 ft 125 kts 153°
2026-04-28 20:43 -15.65662 -56.11475 598 ft 83 kts 153°
2026-04-28 20:43 -15.66001 -56.11295 597 ft 34 kts 153°
2026-04-28 20:44 -15.66152 -56.11215 597 ft 14 kts 153°
2026-04-28 20:44 -15.66211 -56.11203 597 ft 8 kts 197°
2026-04-28 20:44 -15.66242 -56.11239 597 ft 7 kts 247°
2026-04-28 20:44 -15.66244 -56.11280 598 ft 4 kts 286°
2026-04-28 20:45 -15.66234 -56.11295 599 ft 1 kts 311°
2026-04-28 20:45 -15.66228 -56.11300 600 ft 1 kts 321°
2026-04-28 20:45 -15.66222 -56.11305 600 ft 1 kts 328°
2026-04-28 20:48 -15.66121 -56.11360 604 ft 9 kts 333°
2026-04-28 20:48 -15.66056 -56.11395 604 ft 12 kts 333°
2026-04-28 20:48 -15.65980 -56.11435 604 ft 13 kts 333°
2026-04-28 20:49 -15.65899 -56.11478 604 ft 13 kts 333°
2026-04-28 20:49 -15.65816 -56.11522 604 ft 13 kts 333°
2026-04-28 20:49 -15.65738 -56.11564 604 ft 13 kts 333°
2026-04-28 20:49 -15.65660 -56.11605 604 ft 13 kts 333°
2026-04-28 20:50 -15.65579 -56.11648 604 ft 13 kts 333°
2026-04-28 20:50 -15.65493 -56.11694 604 ft 14 kts 333°
2026-04-28 20:50 -15.65402 -56.11743 604 ft 15 kts 333°
2026-04-28 20:50 -15.65313 -56.11790 604 ft 14 kts 333°
2026-04-28 20:51 -15.65227 -56.11836 604 ft 14 kts 334°
2026-04-28 20:51 -15.65199 -56.11850 604 ft 13 kts 334°
2026-04-28 20:51 -15.65046 -56.11931 604 ft 7 kts 333°
2026-04-28 20:52 -15.65007 -56.11952 604 ft 3 kts 332°
2026-04-28 20:52 -15.64998 -56.11973 604 ft 3 kts 253°
2026-04-28 20:52 -15.65009 -56.11988 604 ft 3 kts 237°
2026-04-28 20:52 -15.65014 -56.11997 604 ft 1 kts 241°
2026-04-28 20:53 -15.65016 -56.12000 604 ft 0 kts 241°